TimeMST,TemperatureF,Dew PointF,Humidity,Sea Level PressureIn,VisibilityMPH,Wind Direction,Wind SpeedMPH,Gust SpeedMPH,PrecipitationIn,Events,Conditions,WindDirDegrees,DateUTC
12:53 AM,73.9,57.0,55,29.84,10.0,Calm,Calm,-,N/A,,Clear,0,2013-09-12 07:53:00
1:53 AM,73.0,57.0,57,29.83,10.0,Calm,Calm,-,N/A,,Clear,0,2013-09-12 08:53:00
2:53 AM,73.0,57.0,57,29.82,10.0,Calm,Calm,-,N/A,,Clear,0,2013-09-12 09:53:00
3:53 AM,71.1,57.9,63,29.82,10.0,South,5.8,-,N/A,,Scattered Clouds,170,2013-09-12 10:53:00
4:53 AM,71.1,59.0,66,29.83,10.0,SE,3.5,-,N/A,,Partly Cloudy,140,2013-09-12 11:53:00
5:53 AM,70.0,59.0,68,29.84,10.0,South,4.6,-,N/A,,Scattered Clouds,170,2013-09-12 12:53:00
6:53 AM,72.0,59.0,64,29.85,10.0,South,3.5,-,N/A,,Clear,170,2013-09-12 13:53:00
7:53 AM,73.9,59.0,59,29.86,10.0,SSE,3.5,-,N/A,,Clear,160,2013-09-12 14:53:00
8:53 AM,80.1,57.0,45,29.85,10.0,ESE,3.5,-,N/A,,Clear,120,2013-09-12 15:53:00
9:53 AM,84.0,55.0,37,29.84,10.0,NNW,3.5,-,N/A,,Clear,330,2013-09-12 16:53:00
10:53 AM,87.1,54.0,32,29.82,10.0,Variable,3.5,-,N/A,,Scattered Clouds,0,2013-09-12 17:53:00
11:53 AM,89.1,54.0,30,29.79,10.0,Variable,3.5,-,N/A,,Clear,0,2013-09-12 18:53:00
12:53 PM,93.0,53.1,26,29.77,10.0,NE,8.1,-,N/A,,Clear,40,2013-09-12 19:53:00
1:53 PM,95.0,51.1,22,29.73,10.0,NW,8.1,-,N/A,,Clear,320,2013-09-12 20:53:00
2:53 PM,95.0,52.0,23,29.70,10.0,WNW,8.1,-,N/A,,Clear,300,2013-09-12 21:53:00
3:53 PM,93.9,52.0,24,29.70,10.0,NW,10.4,24.2,N/A,,Scattered Clouds,320,2013-09-12 22:53:00
4:53 PM,93.9,51.1,23,29.68,10.0,NW,6.9,-,N/A,,Clear,310,2013-09-12 23:53:00
5:53 PM,91.9,51.1,25,29.69,10.0,NNW,10.4,19.6,N/A,,Clear,330,2013-09-13 00:53:00
6:53 PM,90.0,48.0,24,29.70,10.0,NW,9.2,-,N/A,,Mostly Cloudy,320,2013-09-13 01:53:00
7:53 PM,88.0,48.9,26,29.72,10.0,NNW,10.4,-,N/A,,Partly Cloudy,330,2013-09-13 02:53:00
8:53 PM,87.1,53.1,31,29.74,10.0,NNE,10.4,-,N/A,,Overcast,30,2013-09-13 03:53:00
9:36 PM,82.0,62.1,51,29.90,10.0,ESE,19.6,27.6,N/A,,Scattered Clouds,120,2013-09-13 04:36:00
9:53 PM,82.0,62.1,51,29.76,10.0,SE,16.1,-,N/A,,Partly Cloudy,130,2013-09-13 04:53:00
10:53 PM,81.0,62.1,52,29.75,10.0,SE,11.5,-,N/A,,Scattered Clouds,130,2013-09-13 05:53:00
11:53 PM,80.1,61.0,52,29.74,10.0,ESE,4.6,-,N/A,,Mostly Cloudy,110,2013-09-13 06:53:00